"read_dt","SO2 (ppb)","flags","PMT voltage (V)","lamp voltage (V)","lamp intensity (Hz)","internal temp (C)","react chamber temp (C)","sample flow (l/min)","pres (mmHg)","SO2 bkg (ppb)","SO2 coefficient"
2016-10-18 00:00:00,1498E-3,5C000000,-0724,0827,12171,029.4,045.5,0.451,741.9,01.18,0.508
2016-10-18 00:01:00,1601E-3,5C000000,-0724,0827,12267,029.4,045.5,0.450,742.0,01.18,0.508
2016-10-18 00:02:00,1599E-3,5C000000,-0724,0827,12246,029.3,045.5,0.451,742.0,01.18,0.508
2016-10-18 00:03:00,1551E-3,5C000000,-0724,0827,11939,029.4,045.5,0.451,741.9,01.18,0.508
2016-10-18 00:04:00,1500E-3,5C000000,-0724,0826,12189,029.4,045.5,0.451,742.0,01.18,0.508
2016-10-18 00:05:00,1490E-3,5C000000,-0724,0828,12228,029.4,045.5,0.451,742.0,01.18,0.508
2016-10-18 00:06:00,1556E-3,5C000000,-0724,0827,12109,029.4,045.5,0.451,742.0,01.18,0.508
2016-10-18 00:07:00,1421E-3,5C000000,-0724,0827,12326,029.4,045.5,0.451,742.0,01.18,0.508
2016-10-18 00:08:00,1687E-3,5C000000,-0724,0827,12196,029.4,045.5,0.451,742.0,01.18,0.508
2016-10-18 00:09:00,1680E-3,5C000000,-0724,0827,12106,029.4,045.5,0.451,742.0,01.18,0.508
2016-10-18 00:10:00,1556E-3,5C000000,-0724,0827,12104,029.4,045.5,0.451,742.0,01.18,0.508
2016-10-18 00:11:00,1473E-3,5C000000,-0724,0826,12317,029.4,045.5,0.451,742.0,01.18,0.508
2016-10-18 00:12:00,1619E-3,5C000000,-0724,0827,12158,029.4,045.5,0.451,742.0,01.18,0.508
2016-10-18 00:13:00,1550E-3,5C000000,-0724,0827,12034,029.3,045.5,0.450,742.0,01.18,0.508
2016-10-18 00:14:00,1575E-3,5C000000,-0724,0827,12160,029.4,045.5,0.450,742.0,01.18,0.508
2016-10-18 00:15:00,1527E-3,5C000000,-0724,0827,12329,029.4,045.5,0.450,742.0,01.18,0.508
2016-10-18 00:16:00,1576E-3,5C000000,-0724,0826,12291,029.4,045.5,0.450,742.0,01.18,0.508
2016-10-18 00:17:00,1547E-3,5C000000,-0724,0826,12153,029.4,045.5,0.450,742.0,01.18,0.508
2016-10-18 00:18:00,1700E-3,5C000000,-0724,0827,12277,029.3,045.5,0.450,742.0,01.18,0.508
2016-10-18 00:19:00,1507E-3,5C000000,-0724,0827,12228,029.3,045.5,0.450,742.0,01.18,0.508
2016-10-18 00:20:00,1639E-3,5C000000,-0724,0826,12223,029.4,045.5,0.450,742.0,01.18,0.508
2016-10-18 00:21:00,1634E-3,5C000000,-0724,0826,12156,029.4,045.5,0.450,742.0,01.18,0.508
2016-10-18 00:22:00,1540E-3,5C000000,-0724,0826,12154,029.6,045.5,0.450,741.9,01.18,0.508
2016-10-18 00:23:00,1594E-3,5C000000,-0724,0827,12157,029.6,045.5,0.450,741.9,01.18,0.508
2016-10-18 00:24:00,1587E-3,5C000000,-0724,0827,12255,029.7,045.5,0.450,741.9,01.18,0.508
2016-10-18 00:25:00,1621E-3,5C000000,-0724,0826,12093,029.8,045.5,0.450,741.9,01.18,0.508
2016-10-18 00:26:00,1701E-3,5C000000,-0724,0828,12175,029.9,045.5,0.450,741.9,01.18,0.508
2016-10-18 00:27:00,1660E-3,5C000000,-0724,0828,12267,030.0,045.5,0.450,741.9,01.18,0.508
2016-10-18 00:28:00,1628E-3,5C000000,-0724,0827,12204,030.0,045.5,0.450,741.9,01.18,0.508
2016-10-18 00:29:00,1651E-3,5C000000,-0724,0827,12025,030.1,045.5,0.450,741.9,01.18,0.508
2016-10-18 00:30:00,1585E-3,5C000000,-0724,0827,12097,030.2,045.5,0.450,741.9,01.18,0.508
2016-10-18 00:31:00,1666E-3,5C000000,-0724,0827,12166,030.2,045.5,0.450,741.9,01.18,0.508
2016-10-18 00:32:00,1557E-3,5C000000,-0724,0828,12256,030.3,045.5,0.450,741.9,01.18,0.508
2016-10-18 00:33:00,1661E-3,5C000000,-0724,0827,12108,030.4,045.5,0.450,741.9,01.18,0.508
2016-10-18 00:34:00,1522E-3,5C000000,-0724,0826,12374,030.4,045.5,0.450,742.0,01.18,0.508
2016-10-18 00:35:00,1561E-3,5C000000,-0724,0827,12237,030.4,045.5,0.449,742.0,01.18,0.508
2016-10-18 00:36:00,1602E-3,5C000000,-0724,0827,12191,030.3,045.5,0.449,742.1,01.18,0.508
2016-10-18 00:37:00,1651E-3,5C000000,-0724,0827,12263,030.3,045.5,0.450,742.1,01.18,0.508
2016-10-18 00:38:00,1508E-3,5C000000,-0724,0827,12248,030.2,045.5,0.450,742.1,01.18,0.508
2016-10-18 00:39:00,1572E-3,5C000000,-0724,0827,12257,030.1,045.5,0.450,742.1,01.18,0.508
2016-10-18 00:40:00,1647E-3,5C000000,-0724,0827,12365,030.1,045.5,0.450,742.1,01.18,0.508
2016-10-18 00:41:00,1638E-3,5C000000,-0724,0827,12081,030.0,045.5,0.450,742.1,01.18,0.508
2016-10-18 00:42:00,1588E-3,5C000000,-0724,0827,12197,030.0,045.5,0.449,742.2,01.18,0.508
2016-10-18 00:43:00,1565E-3,5C000000,-0724,0827,12210,030.0,045.5,0.449,742.1,01.18,0.508
2016-10-18 00:44:00,1621E-3,5C000000,-0724,0827,12286,029.9,045.5,0.449,742.2,01.18,0.508
2016-10-18 00:45:00,1597E-3,5C000000,-0724,0827,12263,029.9,045.5,0.449,742.2,01.18,0.508
2016-10-18 00:46:00,1470E-3,5C000000,-0724,0827,12198,029.8,045.5,0.449,742.2,01.18,0.508
2016-10-18 00:47:00,1546E-3,5C000000,-0724,0827,12245,029.8,045.5,0.449,742.2,01.18,0.508
2016-10-18 00:48:00,1496E-3,5C000000,-0724,0827,12305,029.8,045.5,0.450,742.1,01.18,0.508
2016-10-18 00:49:00,1513E-3,5C000000,-0724,0827,12153,029.7,045.5,0.450,742.1,01.18,0.508
2016-10-18 00:50:00,1521E-3,5C000000,-0724,0826,12296,029.7,045.5,0.450,742.1,01.18,0.508
2016-10-18 00:51:00,1658E-3,5C000000,-0724,0826,12339,029.7,045.5,0.450,742.1,01.18,0.508
2016-10-18 00:52:00,1565E-3,5C000000,-0724,0827,12262,029.6,045.5,0.450,742.1,01.18,0.508
2016-10-18 00:53:00,1719E-3,5C000000,-0724,0827,12167,029.6,045.5,0.450,742.2,01.18,0.508
2016-10-18 00:54:00,1695E-3,5C000000,-0724,0826,12183,029.6,045.5,0.450,742.2,01.18,0.508
2016-10-18 00:55:00,1550E-3,5C000000,-0724,0828,12116,029.6,045.5,0.450,742.2,01.18,0.508
2016-10-18 00:56:00,1481E-3,5C000000,-0724,0826,12160,029.5,045.5,0.450,742.2,01.18,0.508
2016-10-18 00:57:00,1505E-3,5C000000,-0724,0826,12272,029.5,045.5,0.450,742.2,01.18,0.508
2016-10-18 00:58:00,1649E-3,5C000000,-0724,0826,12213,029.5,045.5,0.450,742.2,01.18,0.508
2016-10-18 00:59:00,1565E-3,5C000000,-0724,0827,12275,029.5,045.5,0.450,742.2,01.18,0.508
2016-10-18 01:00:00,1709E-3,5C000000,-0724,0828,12018,029.5,045.5,0.450,742.2,01.18,0.508
2016-10-18 01:01:00,1596E-3,5C000000,-0724,0826,12268,029.4,045.5,0.450,742.2,01.18,0.508
2016-10-18 01:02:00,1562E-3,5C000000,-0724,0827,12143,029.4,045.5,0.450,742.2,01.18,0.508
2016-10-18 01:03:00,1435E-3,5C000000,-0724,0826,12263,029.4,045.5,0.450,742.2,01.18,0.508
2016-10-18 01:04:00,1600E-3,5C000000,-0724,0827,12065,029.3,045.5,0.450,742.2,01.18,0.508
2016-10-18 01:05:00,1630E-3,5C000000,-0724,0827,12248,029.4,045.5,0.451,742.2,01.18,0.508
2016-10-18 01:06:00,1513E-3,5C000000,-0724,0827,12255,029.4,045.5,0.451,742.2,01.18,0.508
2016-10-18 01:07:00,1567E-3,5C000000,-0724,0827,12215,029.3,045.5,0.451,742.2,01.18,0.508
2016-10-18 01:08:00,1514E-3,5C000000,-0724,0827,12410,029.3,045.5,0.451,742.2,01.18,0.508
2016-10-18 01:09:00,1574E-3,5C000000,-0724,0827,12255,029.3,045.5,0.451,742.2,01.18,0.508
2016-10-18 01:10:00,1539E-3,5C000000,-0724,0826,12229,029.3,045.5,0.451,742.1,01.18,0.508
2016-10-18 01:11:00,1614E-3,5C000000,-0724,0826,12180,029.3,045.5,0.451,742.2,01.18,0.508
2016-10-18 01:12:00,1501E-3,5C000000,-0724,0828,12232,029.3,045.5,0.451,742.1,01.18,0.508
2016-10-18 01:13:00,1525E-3,5C000000,-0724,0827,12178,029.3,045.5,0.451,742.1,01.18,0.508
2016-10-18 01:14:00,1476E-3,5C000000,-0724,0826,12289,029.2,045.5,0.451,742.2,01.18,0.508
2016-10-18 01:15:00,1761E-3,5C000000,-0724,0827,12280,029.3,045.5,0.451,742.2,01.18,0.508
2016-10-18 01:16:00,1605E-3,5C000000,-0724,0827,12447,029.2,045.5,0.451,742.2,01.18,0.508
2016-10-18 01:17:00,1526E-3,5C000000,-0724,0826,12177,029.2,045.5,0.451,742.2,01.18,0.508
2016-10-18 01:18:00,1581E-3,5C000000,-0724,0826,12406,029.2,045.5,0.451,742.2,01.18,0.508
2016-10-18 01:19:00,1454E-3,5C000000,-0724,0827,12064,029.2,045.5,0.451,742.2,01.18,0.508
2016-10-18 01:20:00,1590E-3,5C000000,-0724,0826,12042,029.2,045.5,0.450,742.1,01.18,0.508
2016-10-18 01:21:00,1612E-3,5C000000,-0724,0826,12258,029.2,045.5,0.450,742.2,01.18,0.508
2016-10-18 01:22:00,1605E-3,5C000000,-0724,0826,12214,029.2,045.5,0.451,742.2,01.18,0.508
2016-10-18 01:23:00,1518E-3,5C000000,-0724,0828,12244,029.2,045.5,0.451,742.2,01.18,0.508
2016-10-18 01:24:00,1538E-3,5C000000,-0724,0826,12271,029.2,045.5,0.451,742.1,01.18,0.508
2016-10-18 01:25:00,1630E-3,5C000000,-0724,0827,12199,029.2,045.5,0.451,742.1,01.18,0.508
2016-10-18 01:26:00,1595E-3,5C000000,-0724,0826,12105,029.2,045.5,0.451,742.2,01.18,0.508
2016-10-18 01:27:00,1501E-3,5C000000,-0724,0827,12273,029.2,045.5,0.451,742.2,01.18,0.508
2016-10-18 01:28:00,1567E-3,5C000000,-0724,0827,12291,029.2,045.5,0.451,742.2,01.18,0.508
2016-10-18 01:29:00,1572E-3,5C000000,-0724,0827,12141,029.1,045.5,0.451,742.2,01.18,0.508
2016-10-18 01:30:00,1607E-3,5C000000,-0724,0827,12070,029.1,045.5,0.451,742.2,01.18,0.508
2016-10-18 01:31:00,1468E-3,5C000000,-0724,0827,12172,029.1,045.5,0.451,742.1,01.18,0.508
2016-10-18 01:32:00,1579E-3,5C000000,-0724,0827,12327,029.1,045.5,0.451,742.1,01.18,0.508
2016-10-18 01:33:00,1531E-3,5C000000,-0724,0826,12426,029.1,045.5,0.451,742.1,01.18,0.508
2016-10-18 01:34:00,1667E-3,5C000000,-0724,0827,12366,029.1,045.5,0.451,742.1,01.18,0.508
2016-10-18 01:35:00,1428E-3,5C000000,-0724,0828,12303,029.1,045.5,0.451,742.1,01.18,0.508
2016-10-18 01:36:00,1596E-3,5C000000,-0724,0827,12190,029.1,045.5,0.451,742.2,01.18,0.508
2016-10-18 01:37:00,1492E-3,5C000000,-0724,0827,12120,029.1,045.5,0.451,742.2,01.18,0.508
2016-10-18 01:38:00,1572E-3,5C000000,-0724,0826,12291,029.1,045.5,0.451,742.2,01.18,0.508
2016-10-18 01:39:00,1603E-3,5C000000,-0724,0827,12310,029.1,045.5,0.451,742.2,01.18,0.508
2016-10-18 01:40:00,1448E-3,5C000000,-0724,0827,12079,029.1,045.5,0.451,742.2,01.18,0.508
2016-10-18 01:41:00,1525E-3,5C000000,-0724,0827,12140,029.1,045.5,0.451,742.2,01.18,0.508
2016-10-18 01:42:00,1525E-3,5C000000,-0724,0827,12279,029.1,045.5,0.451,742.2,01.18,0.508
2016-10-18 01:43:00,1513E-3,5C000000,-0724,0826,12363,029.0,045.5,0.451,742.2,01.18,0.508
2016-10-18 01:44:00,1619E-3,5C000000,-0724,0826,12367,029.0,045.5,0.451,742.2,01.18,0.508
2016-10-18 01:45:00,1545E-3,5C000000,-0724,0826,12240,029.1,045.5,0.451,742.1,01.18,0.508
2016-10-18 01:46:00,1655E-3,5C000000,-0724,0827,12119,029.0,045.5,0.451,742.1,01.18,0.508
2016-10-18 01:47:00,1514E-3,5C000000,-0724,0826,12215,029.0,045.5,0.451,742.1,01.18,0.508
2016-10-18 01:48:00,1561E-3,5C000000,-0724,0826,12198,029.0,045.5,0.451,742.1,01.18,0.508
2016-10-18 01:49:00,1454E-3,5C000000,-0724,0827,12185,029.1,045.5,0.451,742.1,01.18,0.508
2016-10-18 01:50:00,1512E-3,5C000000,-0724,0826,12087,029.0,045.5,0.451,742.1,01.18,0.508
2016-10-18 01:51:00,1484E-3,5C000000,-0724,0827,12237,029.1,045.5,0.451,742.1,01.18,0.508
2016-10-18 01:52:00,1707E-3,5C000000,-0724,0827,12188,029.0,045.5,0.451,742.1,01.18,0.508
2016-10-18 01:53:00,1663E-3,5C000000,-0724,0827,12384,029.0,045.5,0.451,742.1,01.18,0.508
2016-10-18 01:54:00,1629E-3,5C000000,-0724,0826,12189,029.0,045.5,0.451,742.1,01.18,0.508
2016-10-18 01:55:00,1515E-3,5C000000,-0724,0827,12070,029.1,045.5,0.451,742.1,01.18,0.508
2016-10-18 01:56:00,1572E-3,5C000000,-0724,0827,12196,029.0,045.5,0.451,742.1,01.18,0.508
2016-10-18 01:57:00,1502E-3,5C000000,-0724,0826,12175,029.0,045.5,0.451,742.1,01.18,0.508
2016-10-18 01:58:00,1747E-3,5C000000,-0724,0827,12129,029.0,045.5,0.451,742.1,01.18,0.508
2016-10-18 01:59:00,1397E-3,5C000000,-0724,0827,12272,029.0,045.5,0.451,742.1,01.18,0.508
2016-10-18 02:00:00,1562E-3,5C000000,-0724,0826,12185,029.0,045.5,0.451,742.1,01.18,0.508
2016-10-18 02:01:00,1644E-3,5C000000,-0724,0826,12261,029.0,045.5,0.451,742.1,01.18,0.508
2016-10-18 02:02:00,1533E-3,5C000000,-0724,0826,12214,029.0,045.5,0.452,742.1,01.18,0.508
2016-10-18 02:03:00,1623E-3,5C000000,-0724,0827,12343,029.0,045.5,0.452,742.1,01.18,0.508
2016-10-18 02:04:00,1578E-3,5C000000,-0724,0826,12162,028.9,045.5,0.452,742.1,01.18,0.508
2016-10-18 02:05:00,1600E-3,5C000000,-0724,0826,12061,029.0,045.5,0.451,742.1,01.18,0.508
2016-10-18 02:06:00,1484E-3,5C000000,-0724,0827,12174,029.0,045.5,0.451,742.1,01.18,0.508
2016-10-18 02:07:00,1563E-3,5C000000,-0724,0826,12210,028.9,045.5,0.451,742.2,01.18,0.508
2016-10-18 02:08:00,1538E-3,5C000000,-0724,0827,12298,029.0,045.5,0.451,742.1,01.18,0.508
2016-10-18 02:09:00,1443E-3,5C000000,-0724,0826,12159,029.0,045.5,0.451,742.1,01.18,0.508
2016-10-18 02:10:00,1568E-3,5C000000,-0724,0827,12188,029.0,045.5,0.451,742.1,01.18,0.508
2016-10-18 02:11:00,1672E-3,5C000000,-0724,0827,12200,029.0,045.5,0.451,742.1,01.18,0.508
2016-10-18 02:12:00,1577E-3,5C000000,-0724,0828,12166,028.9,045.5,0.451,742.1,01.18,0.508
2016-10-18 02:13:00,1544E-3,5C000000,-0724,0827,12236,029.0,045.5,0.451,742.1,01.18,0.508
2016-10-18 02:14:00,1621E-3,5C000000,-0724,0826,12158,029.0,045.5,0.451,742.1,01.18,0.508
2016-10-18 02:15:00,1554E-3,5C000000,-0724,0827,12329,028.9,045.5,0.451,742.2,01.18,0.508
2016-10-18 02:16:00,1525E-3,5C000000,-0724,0826,12301,029.0,045.5,0.451,742.2,01.18,0.508
2016-10-18 02:17:00,1553E-3,5C000000,-0724,0826,12293,029.0,045.5,0.452,742.2,01.18,0.508
2016-10-18 02:18:00,1524E-3,5C000000,-0724,0828,12052,028.9,045.5,0.452,742.1,01.18,0.508
2016-10-18 02:19:00,1454E-3,5C000000,-0724,0826,12421,028.9,045.5,0.452,742.1,01.18,0.508
2016-10-18 02:20:00,1698E-3,5C000000,-0724,0826,12352,028.9,045.5,0.451,742.1,01.18,0.508
2016-10-18 02:21:00,1619E-3,5C000000,-0724,0827,12201,028.9,045.5,0.451,742.1,01.18,0.508
2016-10-18 02:22:00,1581E-3,5C000000,-0724,0826,12029,028.9,045.5,0.451,742.1,01.18,0.508
2016-10-18 02:23:00,1377E-3,5C000000,-0724,0827,12176,028.9,045.5,0.451,742.1,01.18,0.508
2016-10-18 02:24:00,1561E-3,5C000000,-0724,0827,12081,028.9,045.5,0.451,742.1,01.18,0.508
2016-10-18 02:25:00,1544E-3,5C000000,-0724,0827,12161,028.9,045.5,0.451,742.1,01.18,0.508
2016-10-18 02:26:00,1667E-3,5C000000,-0724,0827,12127,028.9,045.5,0.451,742.1,01.18,0.508
2016-10-18 02:27:00,1525E-3,5C000000,-0724,0827,12284,028.9,045.5,0.451,742.2,01.18,0.508
2016-10-18 02:28:00,1568E-3,5C000000,-0724,0827,12123,028.9,045.5,0.451,742.1,01.18,0.508
2016-10-18 02:29:00,1639E-3,5C000000,-0724,0826,12239,028.9,045.5,0.452,742.2,01.18,0.508
2016-10-18 02:30:00,1460E-3,5C000000,-0724,0827,12219,028.9,045.5,0.452,742.2,01.18,0.508
2016-10-18 02:31:00,1493E-3,5C000000,-0724,0827,12307,028.9,045.5,0.451,742.1,01.18,0.508
2016-10-18 02:32:00,1554E-3,5C000000,-0724,0827,12233,028.9,045.5,0.451,742.1,01.18,0.508
2016-10-18 02:33:00,1661E-3,5C000000,-0724,0827,11989,028.9,045.5,0.451,742.1,01.18,0.508
2016-10-18 02:34:00,1482E-3,5C000000,-0724,0828,12215,028.9,045.5,0.451,742.1,01.18,0.508
2016-10-18 02:35:00,1498E-3,5C000000,-0724,0826,12382,028.9,045.5,0.451,742.0,01.18,0.508
2016-10-18 02:36:00,1578E-3,5C000000,-0724,0827,12212,028.8,045.5,0.451,742.0,01.18,0.508
2016-10-18 02:37:00,1429E-3,5C000000,-0724,0827,12304,028.8,045.5,0.451,742.0,01.18,0.508
2016-10-18 02:38:00,1652E-3,5C000000,-0724,0826,12218,028.9,045.5,0.451,742.0,01.18,0.508
2016-10-18 02:39:00,1603E-3,5C000000,-0724,0827,12362,028.9,045.5,0.451,742.0,01.18,0.508
2016-10-18 02:40:00,1552E-3,5C000000,-0724,0827,12166,028.8,045.5,0.452,742.0,01.18,0.508
2016-10-18 02:41:00,1508E-3,5C000000,-0724,0826,12194,028.8,045.5,0.452,742.0,01.18,0.508
2016-10-18 02:42:00,1440E-3,5C000000,-0724,0826,12105,028.9,045.5,0.452,742.0,01.18,0.508
2016-10-18 02:43:00,1570E-3,5C000000,-0724,0827,12325,028.9,045.5,0.452,742.0,01.18,0.508
2016-10-18 02:44:00,1604E-3,5C000000,-0724,0827,12143,028.8,045.5,0.451,742.0,01.18,0.508
2016-10-18 02:45:00,1590E-3,5C000000,-0724,0827,12224,028.9,045.5,0.451,742.0,01.18,0.508
2016-10-18 02:46:00,1583E-3,5C000000,-0724,0826,12118,028.9,045.5,0.451,742.0,01.18,0.508
2016-10-18 02:47:00,1569E-3,5C000000,-0724,0827,12345,028.9,045.5,0.451,742.0,01.18,0.508
2016-10-18 02:48:00,1538E-3,5C000000,-0724,0826,12344,028.8,045.5,0.451,742.0,01.18,0.508
2016-10-18 02:49:00,1732E-3,5C000000,-0724,0827,12331,028.9,045.5,0.451,742.0,01.18,0.508
2016-10-18 02:50:00,1495E-3,5C000000,-0724,0826,12329,028.8,045.5,0.451,742.0,01.18,0.508
2016-10-18 02:51:00,1634E-3,5C000000,-0724,0827,12293,028.9,045.5,0.452,742.0,01.18,0.508
2016-10-18 02:52:00,1540E-3,5C000000,-0724,0827,12186,028.8,045.5,0.452,742.0,01.18,0.508
2016-10-18 02:53:00,1480E-3,5C000000,-0724,0828,12090,028.9,045.5,0.452,742.0,01.18,0.508
2016-10-18 02:54:00,1405E-3,5C000000,-0724,0828,12221,028.8,045.5,0.451,742.0,01.18,0.508
2016-10-18 02:55:00,1357E-3,5C000000,-0724,0827,12232,028.8,045.5,0.451,742.0,01.18,0.508
2016-10-18 02:56:00,1560E-3,5C000000,-0724,0827,12279,028.8,045.5,0.451,742.0,01.18,0.508
2016-10-18 02:57:00,1475E-3,5C000000,-0724,0827,12138,028.8,045.5,0.451,742.0,01.18,0.508
2016-10-18 02:58:00,1712E-3,5C000000,-0724,0827,12180,028.8,045.5,0.451,742.0,01.18,0.508
2016-10-18 02:59:00,1590E-3,5C000000,-0724,0827,12222,028.8,045.5,0.451,742.0,01.18,0.508
2016-10-18 03:00:00,1640E-3,5C000000,-0724,0826,12207,028.8,045.5,0.452,742.0,01.18,0.508
2016-10-18 03:01:00,1537E-3,5C000000,-0724,0827,12204,028.8,045.5,0.452,742.0,01.18,0.508
2016-10-18 03:02:00,1435E-3,5C000000,-0724,0826,12199,028.8,045.5,0.452,742.0,01.18,0.508
2016-10-18 03:03:00,1645E-3,5C000000,-0724,0827,12095,028.8,045.5,0.452,742.0,01.18,0.508
2016-10-18 03:04:00,1543E-3,5C000000,-0724,0827,12092,028.8,045.5,0.451,741.9,01.18,0.508
2016-10-18 03:05:00,1542E-3,5C000000,-0724,0827,12125,028.8,045.5,0.451,742.0,01.18,0.508
2016-10-18 03:06:00,1437E-3,5C000000,-0724,0827,12365,028.8,045.5,0.451,742.0,01.18,0.508
2016-10-18 03:07:00,1632E-3,5C000000,-0724,0827,12319,028.8,045.5,0.451,741.9,01.18,0.508
2016-10-18 03:08:00,1556E-3,5C000000,-0724,0826,12223,028.8,045.5,0.451,741.9,01.18,0.508
2016-10-18 03:09:00,1410E-3,5C000000,-0724,0827,12034,028.8,045.5,0.451,741.9,01.18,0.508
2016-10-18 03:10:00,1619E-3,5C000000,-0724,0827,12226,028.8,045.5,0.451,742.0,01.18,0.508
2016-10-18 03:11:00,1579E-3,5C000000,-0724,0826,12353,028.8,045.5,0.452,742.0,01.18,0.508
2016-10-18 03:12:00,1495E-3,5C000000,-0724,0827,12233,028.8,045.5,0.452,742.0,01.18,0.508
2016-10-18 03:13:00,1535E-3,5C000000,-0724,0827,12165,028.8,045.5,0.452,742.0,01.18,0.508
2016-10-18 03:14:00,1449E-3,5C000000,-0724,0827,12251,028.8,045.5,0.452,742.0,01.18,0.508
2016-10-18 03:15:00,1600E-3,5C000000,-0724,0827,12284,028.8,045.5,0.451,742.0,01.18,0.508
2016-10-18 03:16:00,1558E-3,5C000000,-0724,0827,12043,028.7,045.5,0.451,742.0,01.18,0.508
2016-10-18 03:17:00,1535E-3,5C000000,-0724,0827,12279,028.7,045.5,0.451,742.0,01.18,0.508
2016-10-18 03:18:00,1495E-3,5C000000,-0724,0827,12297,028.8,045.5,0.451,742.0,01.18,0.508
2016-10-18 03:19:00,1533E-3,5C000000,-0724,0827,12059,028.8,045.5,0.451,742.0,01.18,0.508
2016-10-18 03:20:00,1553E-3,5C000000,-0724,0827,12364,028.7,045.5,0.451,742.1,01.18,0.508
2016-10-18 03:21:00,1542E-3,5C000000,-0724,0827,12252,028.7,045.5,0.452,742.1,01.18,0.508
2016-10-18 03:22:00,1591E-3,5C000000,-0724,0826,12280,028.8,045.5,0.452,742.1,01.18,0.508
2016-10-18 03:23:00,1589E-3,5C000000,-0724,0827,12249,028.8,045.5,0.452,742.1,01.18,0.508
2016-10-18 03:24:00,1622E-3,5C000000,-0724,0827,12165,028.8,045.5,0.452,742.1,01.18,0.508
2016-10-18 03:25:00,1630E-3,5C000000,-0724,0827,12167,028.7,045.5,0.452,742.1,01.18,0.508
2016-10-18 03:26:00,1484E-3,5C000000,-0724,0828,12323,028.7,045.5,0.452,742.1,01.18,0.508
2016-10-18 03:27:00,1644E-3,5C000000,-0724,0827,12183,028.8,045.5,0.451,742.0,01.18,0.508
2016-10-18 03:28:00,1539E-3,5C000000,-0724,0828,12193,028.7,045.5,0.451,742.1,01.18,0.508
2016-10-18 03:29:00,1482E-3,5C000000,-0724,0826,12107,028.7,045.5,0.451,742.1,01.18,0.508
2016-10-18 03:30:00,1619E-3,5C000000,-0724,0827,12167,028.7,045.5,0.451,742.0,01.18,0.508
2016-10-18 03:31:00,1449E-3,5C000000,-0724,0827,11979,028.7,045.5,0.451,742.0,01.18,0.508
2016-10-18 03:32:00,1465E-3,5C000000,-0724,0826,12237,028.7,045.5,0.452,742.0,01.18,0.508
2016-10-18 03:33:00,1599E-3,5C000000,-0724,0827,12261,028.7,045.5,0.452,742.0,01.18,0.508
2016-10-18 03:34:00,1569E-3,5C000000,-0724,0827,12247,028.7,045.5,0.452,742.0,01.18,0.508
2016-10-18 03:35:00,1435E-3,5C000000,-0724,0827,12134,028.8,045.5,0.452,742.0,01.18,0.508
2016-10-18 03:36:00,1450E-3,5C000000,-0724,0827,12342,028.7,045.5,0.452,742.0,01.18,0.508
2016-10-18 03:37:00,1549E-3,5C000000,-0724,0826,12329,028.7,045.5,0.451,742.0,01.18,0.508
2016-10-18 03:38:00,1476E-3,5C000000,-0724,0827,12285,028.7,045.5,0.451,742.0,01.18,0.508
2016-10-18 03:39:00,1537E-3,5C000000,-0724,0827,12132,028.7,045.5,0.451,742.0,01.18,0.508
2016-10-18 03:40:00,1618E-3,5C000000,-0724,0827,12394,028.7,045.5,0.451,742.0,01.18,0.508
2016-10-18 03:41:00,1574E-3,5C000000,-0724,0827,12309,028.7,045.5,0.451,742.0,01.18,0.508
2016-10-18 03:42:00,1409E-3,5C000000,-0724,0827,12202,028.7,045.5,0.452,742.0,01.18,0.508
2016-10-18 03:43:00,1507E-3,5C000000,-0724,0827,12104,028.7,045.5,0.452,742.0,01.18,0.508
2016-10-18 03:44:00,1670E-3,5C000000,-0724,0828,12322,028.7,045.5,0.452,742.0,01.18,0.508
2016-10-18 03:45:00,1519E-3,5C000000,-0724,0826,12379,028.7,045.5,0.452,742.0,01.18,0.508
2016-10-18 03:46:00,1669E-3,5C000000,-0724,0827,12245,028.6,045.5,0.452,742.0,01.18,0.508
2016-10-18 03:47:00,1623E-3,5C000000,-0724,0827,12047,028.6,045.5,0.452,742.0,01.18,0.508
2016-10-18 03:48:00,1577E-3,5C000000,-0724,0827,12216,028.7,045.5,0.452,742.0,01.18,0.508
2016-10-18 03:49:00,1470E-3,5C000000,-0724,0828,12262,028.7,045.5,0.452,742.0,01.18,0.508
2016-10-18 03:50:00,1539E-3,5C000000,-0724,0826,12212,028.6,045.5,0.452,742.0,01.18,0.508
2016-10-18 03:51:00,1512E-3,5C000000,-0724,0828,12234,028.7,045.5,0.451,742.0,01.18,0.508
2016-10-18 03:52:00,1694E-3,5C000000,-0724,0826,12203,028.6,045.5,0.451,742.0,01.18,0.508
2016-10-18 03:53:00,1592E-3,5C000000,-0724,0827,12261,028.6,045.5,0.451,742.0,01.18,0.508
2016-10-18 03:54:00,1522E-3,5C000000,-0724,0827,12319,028.6,045.5,0.451,742.0,01.18,0.508
2016-10-18 03:55:00,1524E-3,5C000000,-0724,0827,12346,028.6,045.5,0.452,742.0,01.18,0.508
2016-10-18 03:56:00,1587E-3,5C000000,-0724,0827,12228,028.6,045.5,0.452,742.0,01.18,0.508
2016-10-18 03:57:00,1440E-3,5C000000,-0724,0827,12217,028.6,045.5,0.452,742.0,01.18,0.508
2016-10-18 03:58:00,1426E-3,5C000000,-0724,0826,12345,028.6,045.5,0.452,742.0,01.18,0.508
2016-10-18 03:59:00,1572E-3,5C000000,-0724,0828,12093,028.6,045.5,0.452,742.0,01.18,0.508
2016-10-18 04:00:00,1542E-3,5C000000,-0724,0827,12193,028.6,045.5,0.452,742.0,01.18,0.508
2016-10-18 04:01:00,1674E-3,5C000000,-0724,0827,12188,028.6,045.5,0.451,742.0,01.18,0.508
2016-10-18 04:02:00,1563E-3,5C000000,-0724,0828,12241,028.6,045.5,0.451,742.0,01.18,0.508
2016-10-18 04:03:00,1610E-3,5C000000,-0724,0828,12159,028.6,045.5,0.452,742.0,01.18,0.508
2016-10-18 04:04:00,1509E-3,5C000000,-0724,0827,12166,028.6,045.5,0.452,742.0,01.18,0.508
2016-10-18 04:05:00,1492E-3,5C000000,-0724,0827,12320,028.6,045.5,0.452,741.9,01.18,0.508
2016-10-18 04:06:00,1539E-3,5C000000,-0724,0826,12201,028.6,045.5,0.452,741.9,01.18,0.508
2016-10-18 04:07:00,1504E-3,5C000000,-0724,0828,12175,028.6,045.5,0.452,741.9,01.18,0.508
2016-10-18 04:08:00,1631E-3,5C000000,-0724,0827,12186,028.6,045.5,0.452,741.9,01.18,0.508
2016-10-18 04:09:00,1393E-3,5C000000,-0724,0827,12231,028.5,045.5,0.451,741.9,01.18,0.508
2016-10-18 04:10:00,1547E-3,5C000000,-0724,0826,12189,028.6,045.5,0.451,741.9,01.18,0.508
2016-10-18 04:11:00,1537E-3,5C000000,-0724,0828,12085,028.6,045.5,0.451,742.0,01.18,0.508
2016-10-18 04:12:00,1678E-3,5C000000,-0724,0826,12142,028.6,045.5,0.451,742.0,01.18,0.508
2016-10-18 04:13:00,1598E-3,5C000000,-0724,0827,12219,028.6,045.5,0.452,741.9,01.18,0.508
2016-10-18 04:14:00,1536E-3,5C000000,-0724,0827,12250,028.5,045.5,0.452,742.0,01.18,0.508
2016-10-18 04:15:00,1513E-3,5C000000,-0724,0827,12323,028.5,045.5,0.452,742.0,01.18,0.508
2016-10-18 04:16:00,1657E-3,5C000000,-0724,0827,12355,028.5,045.5,0.452,742.0,01.18,0.508
2016-10-18 04:17:00,1529E-3,5C000000,-0724,0828,12258,028.5,045.5,0.452,742.0,01.18,0.508
2016-10-18 04:18:00,1526E-3,5C000000,-0724,0828,12271,028.5,045.5,0.452,742.0,01.18,0.508
2016-10-18 04:19:00,1698E-3,5C000000,-0724,0827,12126,028.5,045.5,0.452,742.0,01.18,0.508
2016-10-18 04:20:00,1492E-3,5C000000,-0724,0828,12154,028.5,045.5,0.452,742.0,01.18,0.508